Date,TemperatureHighF,TemperatureAvgF,TemperatureLowF,DewpointHighF,DewpointAvgF,DewpointLowF,HumidityHigh,HumidityAvg,HumidityLow,PressureMaxIn,PressureMinIn,WindSpeedMaxMPH,WindSpeedAvgMPH,GustSpeedMaxMPH,PrecipitationSumIn
2013-11-1,68.7,63.2,54.1,58.4,54.0,47.3,84,72,61,29.78,29.47,14,7,21,0.06
2013-11-2,68.9,53.0,41.4,47.7,41.5,37.2,86,68,33,29.73,29.59,5,1,7,0.01
2013-11-3,49.5,40.8,30.0,41.6,26.8,9.9,86,60,23,31.42,29.73,4,2,8,0.00
2013-11-4,44.6,31.7,22.1,16.4,13.0,8.7,68,48,24,30.67,30.40,4,1,7,0.00
2013-11-5,52.3,36.5,21.4,30.4,23.9,13.2,78,62,38,30.68,30.49,5,1,8,0.00
2013-11-6,60.4,48.6,35.4,45.2,38.0,27.8,82,68,47,30.49,30.04,9,3,14,0.00
2013-11-7,64.4,52.8,36.3,53.8,45.3,28.8,82,76,65,30.04,29.67,9,4,14,0.14
2013-11-8,47.3,36.6,27.1,32.5,23.9,17.1,78,61,41,30.09,29.82,11,3,15,0.00
2013-11-9,44.8,34.3,23.2,26.7,21.1,16.2,76,60,35,30.19,30.00,6,2,10,0.00
2013-11-10,56.1,44.0,37.8,39.6,32.5,26.5,85,65,45,30.00,29.75,11,3,18,0.04
2013-11-11,50.9,44.4,37.4,29.5,25.4,20.4,59,48,30,30.10,29.88,11,5,19,0.00
2013-11-12,49.1,34.5,25.3,35.2,21.4,8.8,79,59,46,30.17,29.88,9,3,13,0.07
2013-11-13,35.4,28.2,20.3,13.4,8.8,2.0,66,45,26,30.29,30.17,6,3,11,0.00
2013-11-14,52.0,39.0,27.9,20.4,15.9,9.8,55,40,25,30.17,30.05,9,4,14,0.00
2013-11-15,60.8,43.2,26.1,30.3,20.2,13.2,65,44,20,30.21,30.12,6,2,11,0.00
2013-11-16,61.0,43.6,30.4,31.9,26.8,20.6,76,55,22,30.32,30.19,4,1,6,0.00
2013-11-17,56.1,41.7,29.8,48.1,35.8,23.6,88,79,63,30.31,29.85,3,0,4,0.04
2013-11-18,64.8,56.2,45.3,58.1,43.0,29.8,90,63,37,29.85,29.55,10,4,15,0.28
2013-11-19,47.1,38.8,29.3,31.3,20.3,13.6,58,47,36,30.28,29.69,9,5,15,0.00
2013-11-20,43.9,30.2,19.6,14.1,10.2,2.6,65,45,22,30.61,30.28,5,2,9,0.00
2013-11-21,48.7,31.8,17.1,31.1,17.4,7.7,76,57,29,30.62,30.38,6,1,9,0.00
2013-11-22,47.8,44.0,41.0,44.0,38.8,31.1,87,82,67,30.38,29.83,3,1,4,0.11
2013-11-23,48.6,39.1,27.7,43.8,23.1,9.8,87,54,29,29.93,29.81,10,6,17,0.00
2013-11-24,27.7,22.3,18.5,15.0,-2.2,-12.6,71,35,21,30.20,29.82,13,8,21,0.00
2013-11-25,32.5,24.1,14.4,14.0,-3.0,-13.2,50,30,21,30.36,30.20,8,4,11,0.00
2013-11-26,39.7,33.7,30.2,29.0,17.9,9.0,84,54,37,30.32,30.03,7,2,11,0.17
2013-11-27,61.3,47.4,33.3,57.3,43.0,27.6,89,85,73,30.02,29.25,10,4,17,1.33
2013-11-28,36.1,28.7,21.7,27.5,10.0,-3.2,72,46,25,30.42,29.50,12,6,17,0.01
2013-11-29,34.3,25.9,17.4,13.2,6.9,0.0,65,45,28,30.72,30.42,6,2,10,0.00
2013-11-30,34.0,22.6,10.0,16.1,7.2,-0.3,67,52,31,30.77,30.40,4,1,8,0.00